This is the latest recevied weather packets stored in our database for station/object K5GHS-1. If no packets are shown the sender has not sent any weather packets the latest 10 day(s).
| Time | Temp. | Humidity | Pressure | Rain* | Wind** | Luminosity | Snow |
|---|---|---|---|---|---|---|---|
| 1777944107 | 25° C | 66% | 1004.3 hPa | 0 mm | - | 0 W/m² | - |
| 1777943802 | 25° C | 66% | 1004.3 hPa | 0 mm | - | 0 W/m² | - |
| 1777943500 | 25° C | 66% | 1004.4 hPa | 0 mm | - | 0 W/m² | - |
| 1777943200 | 25° C | 66% | 1004.4 hPa | 0 mm | - | 1 W/m² | - |
| 1777942897 | 25° C | 65% | 1004.1 hPa | 0 mm | - | 1 W/m² | - |
| 1777942593 | 25° C | 65% | 1004.3 hPa | 0 mm | - | 4 W/m² | - |
| 1777942290 | 25° C | 65% | 1004.2 hPa | 0 mm | - | 6 W/m² | - |
| 1777941987 | 25° C | 64% | 1004.2 hPa | 0 mm | - | 9 W/m² | - |
| 1777941684 | 25° C | 64% | 1004 hPa | 0 mm | - | 15 W/m² | - |
| 1777941381 | 25° C | 64% | 1004.2 hPa | 0 mm | - | 19 W/m² | - |
| 1777941079 | 25° C | 63% | 1004.3 hPa | 0 mm | - | 24 W/m² | - |
| 1777940774 | 25.56° C | 63% | 1004.3 hPa | 0 mm | - | 23 W/m² | - |
| 1777940473 | 25.56° C | 63% | 1004.6 hPa | 0 mm | - | 23 W/m² | - |
| 1777940169 | 25.56° C | 63% | 1004.5 hPa | 0 mm | - | 25 W/m² | - |
| 1777939867 | 25.56° C | 62% | 1004.3 hPa | 0 mm | - | 34 W/m² | - |
| 1777939564 | 25.56° C | 62% | 1004.3 hPa | 0 mm | - | 47 W/m² | - |
| 1777939262 | 26.11° C | 62% | 1004.3 hPa | 0 mm | - | 63 W/m² | - |
| 1777938958 | 26.11° C | 61% | 1004.5 hPa | 0 mm | - | 69 W/m² | - |
| 1777938655 | 26.11° C | 61% | 1004.2 hPa | 0 mm | - | 75 W/m² | - |
| 1777938352 | 26.11° C | 61% | 1004.7 hPa | 0 mm | - | 79 W/m² | - |
| 1777938049 | 26.11° C | 61% | 1004.5 hPa | 0 mm | - | 70 W/m² | - |
| 1777937744 | 26.11° C | 61% | 1004.5 hPa | 0 mm | - | 72 W/m² | - |
| 1777937441 | 26.11° C | 61% | 1004.6 hPa | 0 mm | - | 73 W/m² | - |
| 1777937138 | 26.11° C | 61% | 1004.6 hPa | 0 mm | - | 80 W/m² | - |
| 1777936836 | 26.11° C | 60% | 1004.5 hPa | 0 mm | - | 78 W/m² | - |
* Rain latest hour (hover to see other rain measurements)
** Current wind speed in m/s (hover to see current wind gust speed)